Погода в Чике

Россия / Республика Коми     65°29′07″N   54°19′41″E
темп.,
°C
ветер,
м/с
пор.,
м/с
влажн.,
%
обл.,
%
осадки,
мм/ч
давл.,
гПа
погр.,
м
24 января, пн
пн2400:00−13ю4129484 0.0 1024365
03:00−13ююз4139280 0.0 1023401
06:00−13ююз4139287 0.0 1022420
09:00−13ю5149287 0.0 1019416
12:00−12ю5149098 0.0 1018492
15:00−12ю51492100 0.0 1016483
18:00−10ю51392100 0.4 1013527
21:00−8ю51393100 0.8 1011519
25 января, вт
вт2500:00−7ю51493100 0.3 1008562
03:00−5ююз51393100 0.6 1006642
06:00−3ююз51293100 0.3 1005712
09:00−3ююз51293100 0.5 1005676
12:00−3ююз51195100 0.6 1004714
15:00−4ююз41194100 1.0 1005623
18:00−4ююз41194100 0.3 1005569
21:00−5ююз41095100 0.9 1006557
26 января, ср
ср2600:00−6ююз41095100 0.8 1006524
03:00−6ююз4995100 1.4 1007473
06:00−7ююз4995100 0.5 1007427
09:00−7ююз3895100 1.0 1008365
12:00−7ююз3795100 0.6 1009321
15:00−8ююз2695100 1.1 1010241
18:00−9ююз2596100 0.1 1011191
21:00−13ююз249991 0.2 101180
27 января, чт
чт2700:00−14ююз249999 0.1 101272
03:00−16ююз269997 0.1 101397
06:00−20юз1110098 0.0 101314
09:00−22ююз1310093 0.1 101446
12:00−17ююз259986 0.0 1014116
15:00−21ю2210062 0.1 101531
18:00−21ююз2610042 0.0 101577
21:00−21ююз2510047 0.0 101575
28 января, пт
пт2800:00−23ююз2410053 0.0 101660
03:00−24ю2310058 0.0 101646
06:00−24ю2410054 0.0 101663
09:00−24ю2410050 0.0 101664
12:00−19ю159828 0.0 1016127
15:00−22ююв1110055 0.0 10169
18:00−25ююв1110070 0.0 10169
21:00−22ююв1110088 0.1 101623